KD9ZDW Weather Reports


Display with metric or nautical units.
time (UTC)temp
F
wind
direction
speed
MPH
gust
MPH
rain 1hr
in
rain 24hr
in
rain mn
in
humidity
%
barometer
mb
20260504130730 56 232 2.0 6.0 0.00 0.00 0.00 69 1008.4
20260504130226 56 242 5.0 6.0 0.00 0.00 0.00 68 1008.5
20260504120150 53 227 3.0 3.0 0.00 0.00 0.00 72 1008.7
20260504110618 50 227 2.0 2.0 0.00 0.00 0.00 78 1008.7
20260504110114 49 263 0.0 2.0 0.00 0.00 0.00 77 1008.6
20260504100539 49 207 2.0 2.0 0.00 0.00 0.00 78 1008.7
20260504081933 44 274 0.0 1.0 0.00 0.00 0.00 90 1009.0
20260504081430 43 290 0.0 1.0 0.00 0.00 0.00 90 1009.4
20260504080926 43 301 1.0 1.0 0.00 0.00 0.00 90 1009.2
20260504080423 43 273 0.0 0.0 0.00 0.00 0.00 90 1009.2
20260504070350 43 260 0.0 0.0 0.00 0.00 0.00 91 1010.0
20260504050738 46 255 0.0 0.0 0.00 0.00 0.00 82 1011.1
20260504050235 47 256 0.0 0.0 0.00 0.00 0.00 81 1011.1
20260504045732 47 264 0.0 0.0 0.00 0.00 0.00 80 1011.1
20260504045227 48 243 0.0 1.0 0.00 0.00 0.00 79 1011.1
20260504044725 48 226 1.0 1.0 0.00 0.00 0.00 79 1011.2
20260504044222 48 233 1.0 1.0 0.00 0.00 0.00 79 1011.3
20260504043719 48 234 1.0 1.0 0.00 0.00 0.00 79 1011.2
20260504043216 48 222 1.0 2.0 0.00 0.00 0.00 79 1011.4
20260504042714 48 252 1.0 1.0 0.00 0.00 0.00 79 1011.4
20260504042210 48 228 1.0 1.0 0.00 0.00 0.00 80 1011.4
20260504041706 48 260 0.0 1.0 0.00 0.00 0.00 79 1011.5
20260504041202 48 247 2.0 2.0 0.00 0.00 0.00 79 1011.5
20260504040659 48 243 1.0 1.0 0.00 0.00 0.00 79 1011.6
20260504040156 48 255 0.0 1.0 0.00 0.00 0.00 79 1011.4
20260504035652 48 236 0.0 1.0 0.00 0.00 0.00 79 1011.5
20260504035150 48 244 1.0 1.0 0.00 0.00 0.00 79 1011.5
20260504034647 48 251 0.0 1.0 0.00 0.00 0.00 79 1011.7
20260504034144 48 238 1.0 1.0 0.00 0.00 0.00 79 1011.7
20260504033642 48 230 1.0 1.0 0.00 0.00 0.00 79 1011.7
20260504033139 48 231 1.0 2.0 0.00 0.00 0.00 79 1012.0
20260504032635 48 213 1.0 1.0 0.00 0.00 0.00 79 1011.8
20260504032132 48 230 1.0 1.0 0.00 0.00 0.00 79 1011.9
20260504031630 48 246 1.0 2.0 0.00 0.00 0.00 79 1012.0
20260504031126 48 236 1.0 1.0 0.00 0.00 0.00 79 1012.2
20260504030623 48 229 1.0 1.0 0.00 0.00 0.00 80 1012.1
20260504030119 48 229 1.0 2.0 0.00 0.00 0.00 80 1012.1
20260504025616 48 228 1.0 2.0 0.00 0.00 0.00 80 1012.2
20260504025113 48 226 1.0 1.0 0.00 0.00 0.00 80 1012.2
20260504024611 48 215 1.0 2.0 0.00 0.00 0.00 80 1012.3
20260504024107 48 211 1.0 2.0 0.00 0.00 0.00 80 1012.3
20260504023603 48 198 1.0 2.0 0.00 0.00 0.00 80 1012.4
20260504023059 48 200 1.0 2.0 0.00 0.00 0.00 80 1012.4
20260504022556 48 233 1.0 1.0 0.00 0.00 0.00 81 1012.4
20260504022052 48 228 1.0 1.0 0.00 0.00 0.00 80 1012.4
20260504021549 48 247 2.0 2.0 0.00 0.00 0.00 80 1012.2
20260504021046 48 236 1.0 2.0 0.00 0.00 0.00 79 1012.3
20260504020543 49 220 1.0 2.0 0.00 0.00 0.00 79 1012.4
20260504020040 49 263 1.0 2.0 0.00 0.00 0.00 79 1012.4
20260504015536 49 252 3.0 3.0 0.00 0.00 0.00 79 1012.4
20260504015032 49 212 2.0 3.0 0.00 0.00 0.00 79 1012.3
20260504014528 49 244 1.0 3.0 0.00 0.00 0.00 78 1012.3
20260504014026 49 285 0.0 3.0 0.00 0.00 0.00 78 1012.2
20260504013524 49 249 1.0 5.0 0.00 0.00 0.00 78 1012.4
20260504013020 50 256 2.0 3.0 0.00 0.00 0.00 77 1012.4
20260504012518 50 230 2.0 5.0 0.00 0.00 0.00 77 1012.5
20260504012016 50 166 2.0 5.0 0.00 0.00 0.00 77 1012.4
20260504011512 50 229 2.0 3.0 0.00 0.00 0.00 76 1012.5
20260504011008 50 255 1.0 5.0 0.00 0.00 0.00 76 1012.4
20260504010504 50 219 1.0 3.0 0.00 0.00 0.00 76 1012.4
20260504010000 50 243 1.0 3.0 0.00 0.00 0.00 76 1012.5
20260504005456 50 230 0.0 1.0 0.00 0.00 0.00 77 1012.4
20260504004954 50 179 2.0 5.0 0.00 0.00 0.00 77 1012.6
20260504004452 50 188 1.0 2.0 0.00 0.00 0.00 77 1012.5
20260504003949 50 218 1.0 3.0 0.00 0.00 0.00 77 1012.7
20260504003445 50 226 2.0 6.0 0.00 0.00 0.00 77 1012.6
20260504002942 50 211 2.0 3.0 0.00 0.00 0.00 77 1012.8
20260504002439 50 228 3.0 3.0 0.00 0.00 0.00 77 1012.9
20260504001936 50 157 3.0 5.0 0.00 0.00 0.00 78 1012.8
20260504001433 50 184 2.0 3.0 0.00 0.00 0.00 78 1012.8
20260504000930 50 247 2.0 3.0 0.00 0.00 0.00 78 1012.8
20260504000427 50 244 0.0 2.0 0.00 0.00 0.00 77 1012.8
20260503235924 50 212 1.0 3.0 0.00 0.00 0.00 77 1013.0
20260503235422 50 199 3.0 3.0 0.00 0.00 0.00 77 1013.0
20260503234919 50 208 3.0 3.0 0.00 0.00 0.00 76 1013.0
20260503234417 50 190 2.0 5.0 0.00 0.00 0.00 76 1013.2
20260503233914 50 237 2.0 2.0 0.00 0.00 0.00 76 1013.0
20260503233411 50 252 0.0 3.0 0.00 0.00 0.00 76 1013.1
20260503232907 50 216 1.0 3.0 0.00 0.00 0.00 75 1013.2
20260503232405 50 231 1.0 2.0 0.00 0.00 0.00 76 1013.2
20260503231902 50 209 2.0 3.0 0.00 0.00 0.00 75 1013.3
20260503231359 50 206 1.0 5.0 0.00 0.00 0.00 75 1013.4
20260503230855 50 200 1.0 6.0 0.00 0.00 0.00 75 1013.3
20260503230352 50 250 3.0 3.0 0.00 0.00 0.00 76 1013.4
20260503225850 50 240 2.0 2.0 0.00 0.00 0.00 77 1013.5
20260503225345 50 248 2.0 3.0 0.00 0.00 0.00 76 1013.6
20260503224842 50 182 3.0 7.0 0.00 0.00 0.00 76 1013.7
20260503224339 50 218 2.0 3.0 0.00 0.00 0.00 76 1013.6
20260503223837 50 263 1.0 3.0 0.00 0.00 0.00 77 1013.5
20260503223334 50 287 1.0 3.0 0.00 0.00 0.00 77 1013.7
20260503222830 50 223 1.0 5.0 0.00 0.00 0.00 76 1013.9
20260503222329 50 247 1.0 2.0 0.00 0.00 0.00 77 1013.9
20260503221826 50 246 1.0 2.0 0.00 0.00 0.00 77 1014.1
20260503221325 50 174 2.0 3.0 0.00 0.00 0.00 77 1013.7
20260503220820 50 219 3.0 3.0 0.00 0.00 0.00 76 1013.9
20260503220318 50 239 0.0 2.0 0.00 0.00 0.00 76 1014.0
20260503215814 50 272 1.0 3.0 0.00 0.00 0.00 76 1014.0
20260503215312 50 229 2.0 3.0 0.00 0.00 0.00 76 1014.2
20260503214809 50 230 1.0 3.0 0.00 0.00 0.00 77 1014.1
20260503214306 50 271 3.0 5.0 0.00 0.00 0.00 76 1014.1
20260503213804 50 258 2.0 6.0 0.00 0.00 0.00 76 1014.2
20260503213301 50 190 3.0 6.0 0.00 0.00 0.00 75 1014.3
20260503212758 51 232 2.0 3.0 0.00 0.00 0.00 76 1014.6
20260503212256 50 204 3.0 6.0 0.00 0.00 0.00 76 1014.4
20260503211753 50 226 2.0 3.0 0.00 0.00 0.00 77 1014.8
20260503211249 50 213 3.0 7.0 0.00 0.00 0.00 76 1014.8
20260503210744 51 221 4.0 7.0 0.00 0.00 0.00 74 1015.3
20260503210242 51 237 3.0 7.0 0.00 0.00 0.00 73 1015.1
20260503205742 52 256 3.0 13.0 0.00 0.00 0.00 70 1015.3
20260503205239 52 190 10.0 15.0 0.00 0.00 0.00 68 1015.4
20260503204735 52 227 9.0 14.0 0.00 0.00 0.00 66 1015.5
20260503204233 52 219 3.0 14.0 0.00 0.00 0.00 67 1015.8
20260503203730 53 72 5.0 14.0 0.00 0.00 0.00 65 1015.5
20260503203228 52 311 9.0 26.0 0.00 0.00 0.00 64 1015.8
20260503202725 53 246 5.0 21.0 0.00 0.00 0.00 65 1015.8
20260503202223 53 187 14.0 21.0 0.00 0.00 0.00 63 1015.8
20260503201720 54 215 8.0 17.0 0.00 0.00 0.00 63 1015.9
20260503201218 54 267 8.0 23.0 0.00 0.00 0.00 61 1015.8
20260503200714 55 321 15.0 29.0 0.00 0.00 0.00 58 1015.8
20260503200210 55 205 14.0 20.0 0.00 0.00 0.00 58 1015.7
20260503195707 56 265 7.0 23.0 0.00 0.00 0.00 56 1015.8
20260503195204 58 278 7.0 21.0 0.00 0.00 0.00 53 1015.7
20260503194701 59 213 3.0 21.0 0.00 0.00 0.00 48 1015.4
20260503194156 59 264 12.0 15.0 0.00 0.00 0.00 46 1015.3
20260503193653 59 253 11.0 15.0 0.00 0.00 0.00 45 1015.3
20260503193149 59 313 11.0 15.0 0.00 0.00 0.00 45 1015.4
20260503192645 60 259 5.0 11.0 0.00 0.00 0.00 44 1015.3
20260503192141 60 222 5.0 11.0 0.00 0.00 0.00 45 1015.5
20260503191638 59 189 6.0 9.0 0.00 0.00 0.00 45 1015.6
20260503191135 60 250 10.0 15.0 0.00 0.00 0.00 43 1015.4
20260503190632 59 313 3.0 6.0 0.00 0.00 0.00 46 1015.6
20260503190128 59 265 7.0 13.0 0.00 0.00 0.00 45 1015.6
20260503185625 59 167 7.0 14.0 0.00 0.00 0.00 44 1015.6
20260503185120 60 336 9.0 16.0 0.00 0.00 0.00 43 1015.6
20260503184615 60 270 3.0 11.0 0.00 0.00 0.00 43 1015.6
20260503184112 60 207 6.0 10.0 0.00 0.00 0.00 44 1015.6
20260503183609 60 272 10.0 16.0 0.00 0.00 0.00 42 1015.8
20260503183106 60 206 6.0 9.0 0.00 0.00 0.00 41 1015.8
20260503182605 61 337 6.0 7.0 0.00 0.00 0.00 42 1016.0
20260503182102 60 204 5.0 10.0 0.00 0.00 0.00 42 1015.9
20260503181559 60 258 4.0 9.0 0.00 0.00 0.00 42 1016.1
20260503181055 60 234 4.0 9.0 0.00 0.00 0.00 41 1016.2
20260503180553 60 277 5.0 7.0 0.00 0.00 0.00 41 1016.3
20260503180050 61 274 10.0 15.0 0.00 0.00 0.00 40 1016.4
20260503175547 60 242 9.0 15.0 0.00 0.00 0.00 40 1016.3
20260503175044 60 226 6.0 11.0 0.00 0.00 0.00 39 1016.3
20260503174542 60 283 5.0 14.0 0.00 0.00 0.00 40 1016.4
20260503174038 61 294 5.0 9.0 0.00 0.00 0.00 40 1016.4
20260503173533 60 225 3.0 11.0 0.00 0.00 0.00 40 1016.6
20260503173029 60 281 5.0 15.0 0.00 0.00 0.00 38 1016.6
20260503172527 60 254 2.0 6.0 0.00 0.00 0.00 41 1016.6
20260503172024 60 207 9.0 20.0 0.00 0.00 0.00 37 1016.9
20260503171520 59 300 9.0 18.0 0.00 0.00 0.00 38 1016.8
20260503171018 60 268 7.0 14.0 0.00 0.00 0.00 40 1016.8
20260503170514 59 221 4.0 21.0 0.00 0.00 0.00 40 1017.0
20260503150906 55 279 3.0 11.0 0.00 0.00 0.00 47 1018.2
20260503150403 55 242 8.0 13.0 0.00 0.00 0.00 47 1018.2